Location: New Canada
(47.1017°N, 68.5042°W)
Time: 07:34:29
(UTC+00:00)

RS-15 - Visible Passes

Search period start: 16 April 2024 00:00
Search period end: 26 April 2024 00:00
Orbit: 1895 x 2150 km, 64.8° (Epoch: 15 April)

Date Brightness Start Highest point End Pass type
(mag) Time Alt. Az. Time Alt. Az. Time Alt. Az.
16 Apr 8.3 00:50:32 10° S 01:01:27 43° ESE 01:11:55 10° NE visible
16 Apr 8.2 03:01:25 10° SW 03:13:21 69° NW 03:24:46 10° NE visible
16 Apr 9.2 05:17:48 10° W 05:28:12 35° NNW 05:38:14 10° NE visible
16 Apr 9.3 07:34:21 10° NW 07:44:36 36° NNE 07:54:28 10° E visible
17 Apr 8.5 00:15:43 10° SSE 00:25:48 33° ESE 00:35:30 10° NE visible
17 Apr 8.1 02:25:07 10° SW 02:37:09 82° NW 02:48:40 10° NE visible
17 Apr 9.1 04:40:44 10° W 04:51:26 38° NNW 05:01:46 10° NE visible
17 Apr 9.4 06:57:44 10° NW 07:07:48 33° NNE 07:17:30 10° ENE visible
17 Apr 8.8 23:41:23 10° SSE 23:50:15 25° E 23:58:51 10° NE visible
18 Apr 8.0 01:49:03 10° SSW 02:01:04 84° ESE 02:12:34 10° NE visible
18 Apr 9.0 04:03:44 10° W 04:14:47 43° NNW 04:25:25 10° NE visible
18 Apr 9.4 06:20:59 10° NW 06:30:57 32° N 06:40:34 10° ENE visible
18 Apr 8.8 08:35:32 10° NW 08:46:33 53° NE 08:57:09 10° ESE visible
19 Apr 8.0 01:13:14 10° SSW 01:25:06 70° ESE 01:36:27 10° NE visible
19 Apr 8.8 03:26:50 10° WSW 03:38:14 49° NW 03:49:09 10° NE visible
19 Apr 9.4 05:44:06 10° WNW 05:54:05 32° N 06:03:42 10° ENE visible
19 Apr 9.0 07:59:17 10° NW 08:10:04 46° NNE 08:20:26 10° ESE visible
20 Apr 8.1 00:37:42 10° S 00:49:14 56° ESE 01:00:17 10° NE visible
20 Apr 8.6 02:50:06 10° WSW 03:01:47 57° NW 03:12:59 10° NE visible
20 Apr 9.4 05:07:05 10° WNW 05:17:13 33° N 05:26:58 10° NE visible
20 Apr 9.2 07:22:57 10° NW 07:33:28 40° NNE 07:43:36 10° E visible
21 Apr 8.3 00:02:28 10° S 00:13:28 45° ESE 00:24:01 10° NE visible
21 Apr 8.3 02:13:33 10° SW 02:25:28 68° NW 02:36:51 10° NE visible
21 Apr 9.3 04:30:02 10° WNW 04:40:23 35° NNW 04:50:21 10° NE visible
21 Apr 9.3 06:46:30 10° NW 06:56:46 36° NNE 07:06:40 10° E visible
21 Apr 8.3 08:59:57 10° NW 09:11:14 76° NE 09:22:09 10° SE visible
22 Apr 8.2 01:37:14 10° SW 01:49:15 80° NW 02:00:45 10° NE visible
22 Apr 9.2 03:52:58 10° W 04:03:37 38° NNW 04:13:52 10° NE visible
22 Apr 9.4 06:09:54 10° NW 06:19:59 33° NNE 06:29:42 10° ENE visible
22 Apr 8.5 08:23:49 10° NW 08:35:01 64° NE 08:45:49 10° SE visible
23 Apr 8.1 01:01:07 10° SSW 01:13:09 86° SE 01:24:38 10° NE visible
23 Apr 9.1 03:15:57 10° W 03:26:56 42° NNW 03:37:30 10° NE visible
23 Apr 9.5 05:33:11 10° NW 05:43:09 32° N 05:52:45 10° ENE visible
23 Apr 8.7 07:47:39 10° NW 07:58:40 54° NE 08:09:18 10° ESE visible
24 Apr 8.0 00:25:16 10° SSW 00:37:09 72° ESE 00:48:31 10° NE visible
24 Apr 8.9 02:39:02 10° WSW 02:50:22 48° NW 03:01:15 10° NE visible
24 Apr 9.5 04:56:18 10° WNW 05:06:16 32° N 05:15:53 10° ENE visible
24 Apr 9.0 07:11:24 10° NW 07:22:12 47° NNE 07:32:37 10° ESE visible
24 Apr 8.2 23:49:41 10° S 00:01:16 58° ESE 00:12:22 10° NE visible
25 Apr 8.7 02:02:17 10° WSW 02:13:54 56° NW 02:25:04 10° NE visible
25 Apr 9.5 04:19:19 10° WNW 04:29:23 32° N 04:39:07 10° NE visible
25 Apr 9.2 06:35:04 10° NW 06:45:37 41° NNE 06:55:47 10° E visible
25 Apr 8.0 08:48:10 10° NW 08:59:23 87° WSW 09:10:19 10° SSE visible
